N8DMH-13 Weather Reports


time (UTC)temp
C
wind
direction
speed
KPH
gust
KPH
rain 1hr
cm
rain 24hr
cm
rain mn
cm
humidity
%
barometer
mb
20260901133545 23 0 0.0 0.0 0.00 0.03 0.00 89 1012.8
20260901133355 24 0 0.0 1.6 0.00 0.03 0.00 89 1012.7
20260901133104 23 0 0.0 0.0 0.00 0.03 0.00 89 1012.8
20260901132826 23 0 0.0 0.0 0.00 0.03 0.00 89 1012.8
20260901132254 23 0 0.0 0.0 0.00 0.03 0.00 90 1013.0
20260901131754 23 0 0.0 0.0 0.00 0.03 0.00 91 1013.0
20260901131225 23 0 0.0 1.6 0.00 0.03 0.00 91 1013.0
20260901131004 22 0 0.0 1.6 0.00 0.03 0.00 92 1013.0
20260901130752 22 0 0.0 1.6 0.00 0.03 0.00 92 1013.0
20260901130654 22 0 0.0 1.6 0.00 0.03 0.00 92 1013.0
20260901130511 22 0 0.0 1.6 0.00 0.03 0.00 93 1012.9
20260901130232 22 0 0.0 1.6 0.00 0.03 0.00 93 1012.9
20260901130154 22 0 0.0 1.6 0.00 0.03 0.00 93 1012.9
20260901125855 22 0 0.0 1.6 0.00 0.08 0.00 93 1012.9
20260901125654 22 0 0.0 1.6 0.00 0.08 0.00 93 1012.9
20260901125417 22 0 0.0 0.0 0.00 0.20 0.00 94 1012.8
20260901125154 22 0 0.0 0.0 0.00 0.20 0.00 94 1012.8
20260901124624 22 0 0.0 0.0 0.00 0.36 0.00 94 1012.8
20260901124436 22 0 0.0 0.0 0.00 0.58 0.00 95 1012.7
20260901124126 22 0 0.0 0.0 0.00 0.58 0.00 95 1012.7
20260901124053 22 0 0.0 0.0 0.00 0.58 0.00 95 1012.7
20260901123837 21 0 0.0 0.0 0.00 1.04 0.00 95 1012.7
20260901123553 21 0 0.0 0.0 0.00 1.04 0.00 95 1012.7
20260901123027 21 0 0.0 0.0 0.00 1.40 0.00 95 1012.7
20260901122749 21 0 0.0 0.0 0.00 1.57 0.00 95 1012.6
20260901122458 21 0 0.0 0.0 0.00 1.57 0.00 95 1012.6
20260901121953 21 0 0.0 0.0 0.00 1.65 0.00 95 1012.7
20260901121423 21 0 0.0 0.0 0.00 1.75 0.00 95 1012.8
20260901121211 21 0 0.0 0.0 0.00 1.78 0.00 95 1012.7
20260901120942 21 0 0.0 0.0 0.00 1.78 0.00 95 1012.7
20260901120913 21 0 0.0 0.0 0.00 1.78 0.00 95 1012.7
20260901120854 21 0 0.0 0.0 0.00 1.78 0.00 95 1012.7
20260901120610 21 0 0.0 0.0 0.00 1.83 0.00 95 1012.6
20260901120353 21 0 0.0 0.0 0.00 1.83 0.00 95 1012.6
20260901120121 21 0 0.0 0.0 0.00 1.85 0.00 95 1012.6
20260901115823 21 0 0.0 0.0 0.00 1.85 0.00 95 1012.6
20260901115605 20 0 0.0 0.0 0.00 1.85 0.00 95 1012.6
20260901115252 20 0 0.0 0.0 0.00 1.85 0.00 95 1012.6
20260901115025 20 0 0.0 0.0 0.00 1.85 0.00 95 1012.5
20260901114754 20 0 0.0 0.0 0.00 1.85 0.00 95 1012.5
20260901114222 20 0 0.0 0.0 0.00 1.85 0.00 95 1012.3
20260901113847 20 0 0.0 0.0 0.00 1.88 0.00 95 1012.2
20260901113653 20 0 0.0 0.0 0.00 1.88 0.00 95 1012.2
20260901113418 20 0 0.0 0.0 0.00 1.88 0.00 95 1011.9
20260901113152 20 0 0.0 0.0 0.00 1.88 0.00 95 1012.2
20260901113034 20 0 0.0 0.0 0.00 1.88 0.00 95 1011.9
20260901112850 20 0 0.0 0.0 0.00 1.88 0.00 95 1011.9
20260901112657 20 0 0.0 0.0 0.00 1.88 0.00 95 1011.9
20260901112622 20 0 0.0 0.0 0.00 1.88 0.00 95 1011.9
20260901112053 20 0 0.0 0.0 0.00 1.88 0.00 95 1011.9
20260901111807 20 0 0.0 0.0 0.00 1.88 0.00 95 1012.0
20260901111552 20 0 0.0 0.0 0.00 1.88 0.00 95 1012.0
20260901111022 20 0 0.0 0.0 0.00 1.88 0.00 94 1011.9
20260901105921 20 0 0.0 0.0 0.00 1.88 0.00 94 1012.0
20260901105351 20 0 0.0 0.0 0.00 1.88 0.00 94 1011.9
20260901104856 20 0 0.0 0.0 0.00 1.88 0.00 94
20260901104851 20 0 0.0 0.0 0.00 1.88 0.00 94 1011.8
20260901104355 20 0 0.0 0.0 0.00 1.88 0.00 94 1011.9
20260901104321 20 0 0.0 0.0 0.00 1.88 0.00 94 1011.9
20260901103933 21 0 0.0 0.0 0.00 1.88 0.00 94 1011.8
20260901103823 21 0 0.0 0.0 0.00 1.88 0.00 94 1011.8
20260901103523 21 0 0.0 0.0 0.00 1.88 0.00 94 1011.8
20260901103321 21 0 0.0 0.0 0.00 1.88 0.00 94 1011.8
20260901102944 21 0 0.0 0.0 0.00 1.88 0.00 94 1011.8
20260901102821 21 0 0.0 0.0 0.00 1.88 0.00 94 1011.8
20260901102252 21 0 0.0 0.0 0.00 1.88 0.00 94 1011.7
20260901101753 21 0 0.0 0.0 0.00 1.88 0.00 94 1011.5
20260901101335 21 0 0.0 0.0 0.00 1.88 0.00 94 1011.5
20260901101224 21 0 0.0 0.0 0.00 1.88 0.00 94 1011.5
20260901100807 21 0 0.0 0.0 0.00 1.88 0.00 94 1011.5
20260901100652 21 0 0.0 0.0 0.00 1.88 0.00 94 1011.5
20260901100151 21 0 0.0 0.0 0.00 1.88 0.00 94 1011.6
20260901095620 21 0 0.0 0.0 0.00 1.88 0.00 94 1011.6
20260901095051 21 0 0.0 0.0 0.00 1.88 0.00 94 1011.5
20260901094800 21 0 0.0 0.0 0.00 1.88 0.00 93 1011.5
20260901094624 21 0 0.0 0.0 0.00 1.88 0.00 93 1011.5
20260901094550 21 0 0.0 0.0 0.00 1.88 0.00 93 1011.5
20260901094049 21 0 0.0 0.0 0.00 1.88 0.00 94 1011.5
20260901093802 21 0 0.0 0.0 0.00 1.88 0.00 93 1011.4
20260901093520 21 0 0.0 0.0 0.00 1.88 0.00 93 1011.4
20260901093021 21 0 0.0 0.0 0.00 1.88 0.00 93 1011.3
20260901092729 21 0 0.0 0.0 0.00 1.88 0.00 93 1011.3
20260901092524 21 0 0.0 0.0 0.00 1.88 0.00 93 1011.3
20260901091646 21 0 0.0 0.0 0.00 1.88 0.00 93 1011.2
20260901091452 21 0 0.0 0.0 0.00 1.88 0.00 93 1011.2
20260901090949 21 0 0.0 0.0 0.00 1.88 0.00 93 1011.3
20260901090419 21 0 0.0 0.0 0.00 1.88 0.00 92 1011.2
20260901085919 21 0 0.0 0.0 0.00 1.88 0.00 92 1011.2
20260901085635 21 0 0.0 0.0 0.00 1.88 0.00 92 1011.2
20260901085420 21 0 0.0 0.0 0.00 1.88 0.00 92 1011.2
20260901085105 21 0 0.0 0.0 0.00 1.88 0.00 93 1011.2
20260901085014 21 0 0.0 0.0 0.00 1.88 0.00 93 1011.2
20260901084849 21 0 0.0 0.0 0.00 1.88 0.00 93 1011.2
20260901084318 21 0 0.0 0.0 0.00 1.88 0.00 92 1011.2
20260901083818 22 0 0.0 0.0 0.00 1.88 0.00 92 1011.1
20260901083249 22 0 0.0 0.0 0.00 1.88 0.00 92 1011.1
20260901083019 22 0 0.0 0.0 0.00 1.88 0.00 92 1011.2
20260901082927 22 0 0.0 0.0 0.00 1.88 0.00 92 1011.2
20260901082751 22 0 0.0 0.0 0.00 1.88 0.00 92 1011.2
20260901082219 22 0 0.0 0.0 0.00 1.88 0.00 91 1011.1
20260901081648 22 0 0.0 0.0 0.00 1.88 0.00 91 1011.0
20260901081414 22 0 0.0 0.0 0.00 1.88 0.00 91 1011.1
20260901081147 22 0 0.0 0.0 0.00 1.88 0.00 91 1011.1
20260901080723 22 0 0.0 0.0 0.00 1.88 0.00 92 1011.1
20260901080648 22 0 0.0 0.0 0.00 1.88 0.00 92 1011.1
20260901080237 22 0 0.0 1.6 0.00 1.88 0.00 92 1011.0
20260901080117 22 0 0.0 1.6 0.00 1.88 0.00 92 1011.0
20260901075617 22 0 0.0 1.6 0.00 1.88 0.00 92 1011.0
20260901075117 22 0 0.0 1.6 0.00 1.88 0.00 92 1010.9
20260901074549 22 0 0.0 0.0 0.00 1.88 0.00 91 1011.1
20260901074047 22 0 0.0 0.0 0.00 1.88 0.00 91 1010.9
20260901073600 22 0 0.0 0.0 0.00 1.88 0.00 91 1011.1
20260901073518 22 0 0.0 0.0 0.00 1.88 0.00 91 1011.1
20260901072947 22 0 0.0 0.0 0.00 1.88 0.00 91 1011.2
20260901072649 22 0 0.0 0.0 0.00 1.88 0.00 90 1011.2
20260901072449 22 0 0.0 0.0 0.00 1.88 0.00 90 1011.2
20260901072249 22 0 0.0 0.0 0.00 1.88 0.00 90 1011.3
20260901071917 22 0 0.0 0.0 0.00 1.88 0.00 90 1011.3
20260901071603 22 0 0.0 0.0 0.00 1.88 0.00 90 1011.3
20260901071348 22 0 0.0 0.0 0.00 1.88 0.00 90 1011.3
20260901070955 22 0 0.0 0.0 0.00 1.88 0.00 90 1011.4
20260901070846 22 0 0.0 0.0 0.00 1.88 0.00 90 1011.4
20260901070446 22 0 0.0 0.0 0.00 1.88 0.00 90 1011.4
20260901070316 22 0 0.0 0.0 0.00 1.88 0.00 90 1011.4
20260901065816 22 0 0.0 0.0 0.00 1.88 0.00 90 1011.3
20260901065316 22 0 0.0 0.0 0.00 1.88 0.00 89 1011.3
20260901064747 22 0 0.0 0.0 0.00 1.88 0.00 90 1011.3
20260901064415 22 0 0.0 0.0 0.00 1.88 0.00 89 1011.3
20260901064248 22 0 0.0 0.0 0.00 1.88 0.00 89 1011.3
20260901063716 22 0 0.0 0.0 0.00 1.88 0.00 90 1011.4
20260901063216 22 0 0.0 0.0 0.00 1.88 0.00 89 1011.4
20260901062645 22 0 0.0 0.0 0.00 1.88 0.00 89 1011.2
20260901062243 22 0 0.0 0.0 0.00 1.88 0.00 89 1011.2
20260901062115 22 0 0.0 0.0 0.00 1.88 0.00 89 1011.2
20260901061545 22 0 0.0 0.0 0.00 1.88 0.00 89 1011.3
20260901061145 22 0 0.0 0.0 0.00 1.88 0.00 90 1011.3
20260901061045 22 0 0.0 0.0 0.00 1.88 0.00 90 1011.3
20260901060545 22 0 0.0 0.0 0.00 1.88 0.00 90 1011.3
20260901060015 22 0 0.0 0.0 0.00 1.88 0.00 89 1011.3
20260901055515 22 0 0.0 0.0 0.00 1.88 0.00 89 1011.3
20260901054944 22 0 0.0 0.0 0.00 1.88 0.00 89 1011.4
20260901054447 22 0 0.0 0.0 0.00 1.88 0.00 89 1011.5
20260901053914 22 0 0.0 0.0 0.00 1.88 0.00 89 1011.5
20260901053514 22 0 0.0 0.0 0.00 1.88 0.00 89 1011.4
20260901053345 22 0 0.0 0.0 0.00 1.88 0.00 89 1011.4
20260901052844 22 0 0.0 0.0 0.00 1.88 0.00 89 1011.4
20260901052314 22 0 0.0 0.0 0.00 1.88 0.00 89 1011.3
20260901051744 22 0 0.0 0.0 0.00 1.88 0.00 89 1011.3
20260901051245 22 0 0.0 0.0 0.00 1.88 0.00 89 1011.3
20260901050752 22 0 0.0 0.0 0.00 1.88 0.00 88 1011.1
20260901050744 22 0 0.0 0.0 0.00 1.88 0.00 88 1011.1
20260901050213 22 0 0.0 0.0 0.00 1.88 0.00 88 1011.2
20260901045713 22 0 0.0 0.0 0.00 1.88 0.00 88 1011.1
20260901045213 22 0 0.0 0.0 0.00 1.88 0.00 88 1011.4
20260901044643 22 0 0.0 0.0 0.00 1.88 0.00 87 1011.4
20260901044143 22 0 0.0 0.0 0.00 1.88 0.00 87 1011.4
20260901043643 22 0 0.0 0.0 0.00 1.88 0.00 87 1011.4
20260901043233 22 0 0.0 0.0 0.00 1.88 0.00 87 1011.4
20260901043113 22 0 0.0 0.0 0.00 1.88 0.00 87 1011.4
20260901042909 22 0 0.0 1.6 0.00 1.88 0.00 87 1011.4
20260901042613 22 0 0.0 1.6 0.00 1.88 0.00 87 1011.4
20260901042113 22 0 0.0 1.6 0.00 1.88 0.00 87 1011.3
20260901041800 23 0 0.0 0.0 0.00 1.88 0.00 87 1011.4
20260901041646 23 0 0.0 0.0 0.00 1.88 0.00 87 1011.4
20260901041542 23 0 0.0 0.0 0.00 1.88 0.00 87 1011.4
20260901041308 23 0 0.0 0.0 0.00 1.88 0.00 87 1011.4
20260901041042 23 0 0.0 0.0 0.00 1.88 0.00 87 1011.4
20260901040512 23 0 0.0 1.6 0.00 1.88 0.00 87 1011.4
20260901035946 23 0 0.0 0.0 0.00 1.88 1.88 87 1011.3
20260901035412 23 0 0.0 0.0 0.00 1.88 1.88 87 1011.3
20260901034842 23 0 0.0 0.0 0.00 1.88 1.88 86 1011.3
20260901034342 23 0 0.0 0.0 0.00 1.88 1.88 87 1011.5
20260901033842 23 0 0.0 0.0 0.00 1.88 1.88 86 1011.3
20260901033311 23 0 0.0 0.0 0.00 1.88 1.88 86 1011.4
20260901032811 23 0 0.0 1.6 0.00 1.88 1.88 86 1011.3
20260901032311 23 0 0.0 1.6 0.00 1.88 1.88 86 1011.2
20260901031744 23 0 0.0 1.6 0.00 1.88 1.88 86 1011.3
20260901031242 23 0 0.0 0.0 0.00 1.88 1.88 86 1011.2
20260901030827 23 0 0.0 0.0 0.00 1.88 1.88 86 1011.3
20260901030711 23 0 0.0 0.0 0.00 1.88 1.88 86 1011.3
20260901030141 23 0 0.0 0.0 0.00 1.88 1.88 87 1011.4
20260901025640 23 0 0.0 0.0 0.00 1.88 1.88 87 1011.2
20260901024242 23 0 0.0 0.0 0.00 1.88 1.88 84 1011.4
20260901024040 23 0 0.0 0.0 0.00 1.88 1.88 84 1011.4
20260901023659 23 0 0.0 0.0 0.00 1.88 1.88 83 1011.5
20260901023540 23 0 0.0 0.0 0.00 1.88 1.88 83 1011.5
20260901022510 23 0 0.0 0.0 0.00 1.88 1.88 83 1011.2
20260901022010 23 0 0.0 0.0 0.00 1.88 1.88 82 1011.3
20260901021440 24 0 0.0 0.0 0.00 1.88 1.88 82 1011.3
20260901020940 24 0 0.0 0.0 0.00 1.88 1.88 82 1011.2
20260901020440 24 0 0.0 0.0 0.00 1.88 1.88 81 1011.2
20260901015910 24 0 0.0 0.0 0.00 1.88 1.88 81 1011.3
20260901015409 25 0 0.0 0.0 0.00 1.88 1.88 80 1011.2
20260901014909 25 0 0.0 0.0 0.00 1.88 1.88 80 1011.0
20260901014339 25 0 0.0 0.0 0.00 1.88 1.88 80 1010.9
20260901013839 25 0 0.0 0.0 0.00 1.88 1.88 79 1010.9
20260901013339 25 0 0.0 1.6 0.00 1.88 1.88 79 1011.1
20260901012839 25 0 0.0 0.0 0.00 1.88 1.88 79 1011.1
20260901012310 25 0 0.0 0.0 0.00 1.88 1.88 79 1011.0
20260901011809 25 0 0.0 0.0 0.00 1.88 1.88 78 1010.8
20260901011309 25 0 0.0 0.0 0.00 1.88 1.88 78 1010.8
20260901010240 25 0 0.0 0.0 0.00 1.88 1.88 79 1010.5
20260901005709 25 0 0.0 0.0 0.00 1.88 1.88 78 1010.3
20260901005208 25 0 0.0 0.0 0.00 1.88 1.88 78 1010.4
20260901004708 25 0 0.0 0.0 0.00 1.88 1.88 78 1010.3
20260901004138 26 0 0.0 0.0 0.00 1.88 1.88 77 1010.3
20260901003638 26 0 0.0 0.0 0.00 1.88 1.88 77 1010.2
20260901003138 26 0 0.0 0.0 0.00 1.88 1.88 77 1010.2
20260901002608 26 0 0.0 0.0 0.00 1.88 1.88 76 1010.3
20260901002107 26 0 0.0 0.0 0.00 1.88 1.88 75 1010.4
20260901001537 26 0 0.0 0.0 0.00 1.88 1.88 75 1010.3
20260901001008 26 0 0.0 0.0 0.00 1.88 1.88 74 1010.4
20260901000508 27 0 0.0 0.0 0.00 1.88 1.88 74 1010.4
20260901000007 27 0 0.0 0.0 0.00 1.88 1.88 73 1010.2
20260831235437 27 0 0.0 3.2 0.00 1.88 1.88 73 1010.2
20260831234938 27 0 0.0 1.6 0.00 1.88 1.88 72 1010.3
20260831234438 27 0 0.0 1.6 0.00 1.88 1.88 72 1010.2
20260831233907 27 248 1.6 6.4 0.00 1.88 1.88 72 1010.2
20260831233407 27 248 1.6 4.8 0.00 1.88 1.88 72 1010.2
20260831233148 27 248 1.6 6.4 0.00 1.88 1.88 71 1010.2
20260831232837 27 248 1.6 6.4 0.00 1.88 1.88 71 1010.2
20260831232337 28 270 1.6 6.4 0.00 1.88 1.88 71 1010.3
20260831232130 28 248 1.6 9.7 0.00 1.88 1.88 69 1010.2
20260831231836 28 248 1.6 9.7 0.00 1.88 1.88 69 1010.2
20260831231307 28 270 1.6 8.0 0.00 1.88 1.88 69 1010.2
20260831230807 29 248 3.2 6.4 0.00 1.88 1.88 68 1010.0
20260831230532 29 270 1.6 8.0 0.00 1.88 1.88 67 1009.9
20260831230236 29 270 1.6 8.0 0.00 1.88 1.88 67 1009.9
20260831225706 30 270 1.6 4.8 0.00 1.88 1.88 67 1009.9
20260831225206 30 248 1.6 4.8 0.00 1.88 1.88 66 1009.9
20260831224636 30 0 0.0 3.2 0.00 1.91 1.88 67 1009.8
20260831224135 30 292 1.6 4.8 0.00 1.91 1.88 67 1009.8
20260831223635 30 248 1.6 6.4 0.00 1.91 1.88 66 1009.7
20260831223105 30 270 1.6 4.8 0.00 1.91 1.88 67 1009.8
20260831222605 30 270 1.6 6.4 0.00 1.91 1.88 65 1009.6
20260831222106 30 0 0.0 3.2 0.00 1.91 1.88 65 1009.5
20260831221245 30 225 1.6 11.3 0.00 1.93 1.88 67 1009.5
20260831221035 30 225 1.6 11.3 0.00 1.93 1.88 67 1009.5
20260831220820 30 248 1.6 3.2 0.00 1.96 1.88 68 1009.6
20260831220507 30 248 1.6 3.2 0.00 1.96 1.88 68 1009.6
20260831220005 30 248 3.2 8.0 0.00 1.96 1.88 68 1009.7
20260831215506 29 248 4.8 12.9 0.00 1.96 1.88 68 1009.7
20260831214935 29 248 4.8 12.9 0.00 1.96 1.88 68 1009.6
20260831214434 29 248 4.8 11.3 0.00 1.96 1.88 68 1009.6
20260831213904 29 248 4.8 12.9 0.00 1.96 1.88 68 1009.5
20260831213404 29 270 4.8 12.9 0.00 1.96 1.88 67 1009.6
20260831212835 29 248 4.8 11.3 0.00 1.96 1.88 68 1009.7
20260831212306 28 248 6.4 11.3 0.00 1.96 1.88 68 1009.8
20260831211803 29 248 4.8 12.9 0.00 1.96 1.88 67 1009.7
20260831211303 30 248 3.2 11.3 0.00 1.96 1.88 67 1009.5
20260831210803 30 270 3.2 12.9 0.00 1.96 1.88 66 1009.6
20260831210234 30 248 3.2 14.5 0.00 1.96 1.88 66 1009.6
20260831205703 29 248 1.6 6.4 0.00 1.96 1.88 67 1009.6
20260831205203 29 270 1.6 6.4 0.00 1.96 1.88 67 1009.6
20260831204633 29 248 1.6 6.4 0.00 1.96 1.88 67 1009.4
20260831204104 29 248 3.2 9.7 0.00 1.96 1.88 66 1009.6
20260831203924 29 270 1.6 6.4 0.00 1.96 1.88 65 1009.4
20260831203603 29 270 1.6 6.4 0.00 1.96 1.88 65 1009.4
20260831203242 29 248 1.6 4.8 0.00 1.96 1.88 65 1009.6
20260831203034 29 248 1.6 4.8 0.00 1.96 1.88 65 1009.6
20260831202654 30 270 3.2 11.3 0.00 1.96 1.88 65 1009.6
20260831202504 30 270 3.2 11.3 0.00 1.96 1.88 65 1009.6
20260831202003 29 270 4.8 14.5 0.00 1.96 1.88 64 1009.6
20260831201432 30 270 3.2 11.3 0.00 1.96 1.88 63 1009.6
20260831200902 30 292 1.6 8.0 0.00 1.96 1.88 64 1009.7
20260831200402 30 270 3.2 8.0 0.00 1.96 1.88 63 1009.7
20260831195832 30 270 4.8 16.1 0.00 1.96 1.88 62 1009.6
20260831195302 30 270 4.8 19.3 0.00 1.96 1.88 63 1009.6
20260831194802 30 270 3.2 9.7 0.00 1.96 1.88 63 1009.5
20260831194232 30 292 6.4 14.5 0.00 1.96 1.88 63 1009.4
20260831193701 30 270 3.2 12.9 0.00 1.96 1.88 65 1009.6
20260831193201 30 248 4.8 14.5 0.00 1.96 1.88 65 1009.6
20260831192632 30 270 3.2 12.9 0.00 1.96 1.88 68 1009.8
20260831191631 30 225 3.2 11.3 0.00 1.96 1.88 69 1009.7
20260831191102 30 248 4.8 9.7 0.00 1.96 1.88 68 1009.6
20260831190601 30 292 1.6 9.7 0.00 1.96 1.88 70 1009.7
20260831190031 29 292 3.2 11.3 0.00 1.96 1.88 70 1009.9
20260831185530 29 68 1.6 6.4 0.00 1.96 1.88 70 1009.9
20260831185031 29 248 3.2 9.7 0.00 1.96 1.88 69 1010.0
20260831184530 28 292 1.6 4.8 0.00 1.96 1.88 70 1010.1
20260831184033 28 292 3.2 11.3 0.00 1.96 1.88 69 1010.0
20260831183503 28 270 3.2 12.9 0.00 1.96 1.88 71 1010.1
20260831183000 28 225 1.6 9.7 0.00 1.96 1.88 71 1010.1
20260831182431 28 270 3.2 11.3 0.00 1.96 1.88 71 1010.3
20260831181930 28 292 1.6 8.0 0.00 1.96 1.88 72 1010.3
20260831181654 28 270 3.2 11.3 0.00 1.96 1.88 72 1010.4
20260831181430 28 270 3.2 11.3 0.00 1.96 1.88 72 1010.4
20260831180929 28 270 3.2 9.7 0.00 1.96 1.88 73 1010.4
20260831180400 28 248 1.6 6.4 0.00 1.96 1.88 73 1010.4
20260831175829 27 292 3.2 9.7 0.00 1.96 1.88 75 1010.5
20260831174800 27 315 1.6 8.0 0.00 1.96 1.88 76 1010.5
20260831174259 27 292 1.6 8.0 0.00 1.96 1.88 76 1010.5
20260831173729 27 90 1.6 8.0 0.00 1.96 1.88 77 1010.7
20260831173229 26 68 1.6 4.8 0.00 1.96 1.88 77 1010.9
20260831172659 26 292 1.6 6.4 0.00 1.96 1.88 77 1010.9
20260831172159 26 45 1.6 8.0 0.00 1.96 1.88 79 1011.0
20260831171927 26 0 1.6 6.4 0.00 1.96 1.88 78 1010.9
20260831171629 26 0 1.6 6.4 0.00 1.96 1.88 78 1010.9
20260831171058 26 112 1.6 4.8 0.00 1.96 1.88 78 1010.9
20260831170559 26 68 1.6 8.0 0.00 1.96 1.88 80 1011.0
20260831170029 25 135 3.2 16.1 0.00 1.96 1.88 82 1011.1
20260831165500 25 90 1.6 8.0 0.00 1.96 1.88 82 1011.2
20260831164959 25 68 3.2 11.3 0.00 1.96 1.88 83 1011.1
20260831164500 25 68 3.2 14.5 0.00 1.96 1.88 82 1011.2
20260831163928 25 135 1.6 11.3 0.00 1.96 1.88 83 1011.5
20260831163359 25 135 3.2 16.1 0.00 1.96 1.88 83 1011.6
20260831162858 25 135 1.6 9.7 0.00 1.96 1.88 85 1011.6
20260831162400 25 135 1.6 9.7 0.00 1.96 1.88 83 1011.5
20260831161857 24 90 1.6 8.0 0.00 1.96 1.88 86 1011.6
20260831161329 24 90 4.8 14.5 0.00 1.96 1.88 86 1011.8
20260831160757 24 112 3.2 11.3 0.00 1.96 1.88 87 1011.9
20260831160258 24 112 1.6 9.7 0.00 1.96 1.88 89 1012.1
20260831155728 23 90 1.6 11.3 0.00 1.96 1.88 89 1012.3
20260831155456 23 112 1.6 8.0 0.00 1.96 1.88 90 1012.5
20260831155227 23 112 1.6 8.0 0.00 1.96 1.88 90 1012.5
20260831154658 23 135 1.6 6.4 0.00 1.96 1.88 91 1012.6
20260831154157 23 68 3.2 11.3 0.00 1.96 1.88 91 1012.8
20260831153656 23 135 1.6 8.0 0.03 1.96 1.88 93 1012.8
20260831153313 22 0 0.0 3.2 0.03 1.96 1.88 93 1012.8
20260831153126 22 0 0.0 3.2 0.03 1.96 1.88 93 1012.8
20260831152626 22 90 3.2 9.7 0.03 1.96 1.88 93 1012.9
20260831152056 22 112 1.6 6.4 0.03 1.96 1.88 95 1013.0
20260831151527 22 112 3.2 6.4 0.03 1.96 1.88 95 1012.6
20260831151226 21 112 1.6 4.8 0.03 1.96 1.88 95 1012.8
20260831151026 21 112 1.6 4.8 0.03 1.96 1.88 95 1012.8
20260831150526 21 112 1.6 3.2 0.03 1.96 1.88 95 1012.9
20260831150025 21 68 1.6 4.8 0.03 1.96 1.88 95 1012.9
20260831145758 21 0 0.0 4.8 0.03 1.96 1.88 95 1013.1
20260831145459 21 0 0.0 4.8 0.03 1.96 1.88 95 1013.1
20260831144925 21 0 0.0 1.6 0.03 1.96 1.88 95 1013.1
20260831144426 21 0 0.0 0.0 0.03 1.96 1.88 95 1013.3
20260831144130 21 0 0.0 0.0 0.03 1.96 1.88 95 1013.3
20260831143926 21 0 0.0 0.0 0.03 1.96 1.88 95 1013.3
20260831143355 21 0 0.0 1.6 0.00 1.93 1.85 95 1013.2
20260831142856 21 0 0.0 0.0 0.00 1.93 1.85 95 1013.2
20260831142325 21 0 0.0 1.6 0.00 1.93 1.85 95 1013.2
20260831141826 21 0 0.0 1.6 0.00 1.93 1.85 95 1013.0
20260831141324 21 0 0.0 1.6 0.00 1.93 1.85 95 1013.2
20260831140826 21 0 0.0 1.6 0.00 1.93 1.85 95 1013.3
20260831140529 21 0 0.0 0.0 0.00 1.93 1.85 95 1013.3
20260831140255 21 0 0.0 0.0 0.00 1.93 1.85 95 1013.3
20260831135755 21 0 0.0 1.6 0.05 1.93 1.85 95 1013.3
20260831135559 21 0 0.0 0.0 0.18 1.93 1.85 96 1013.4
20260831135227 21 0 0.0 0.0 0.18 1.93 1.85 96 1013.4
20260831135005 21 0 0.0 1.6 0.33 1.93 1.85 96 1013.3
20260831134724 21 0 0.0 1.6 0.33 1.93 1.85 96 1013.3
20260831134439 21 0 0.0 1.6 0.56 1.93 1.85 96 1013.3
20260831134224 21 0 0.0 1.6 0.56 1.93 1.85 96 1013.3